Time,TemperatureF,DewpointF,PressureIn,WindDirection,WindDirectionDegrees,WindSpeedMPH,WindSpeedGustMPH,Humidity,HourlyPrecipIn,Conditions,Clouds,dailyrainin,SoftwareType,DateUTC
2013-03-04 00:00:00,25.9,21.2,29.73,WSW,249,0.0,6.0,82,0.00,,,0.03,VWS V14.01,2013-03-04 05:00:00,
2013-03-04 00:05:00,25.9,21.5,29.73,SW,225,1.0,5.0,83,0.00,,,0.00,VWS V14.01,2013-03-04 05:05:00,
2013-03-04 00:10:00,25.9,21.5,29.73,SW,225,0.0,2.0,83,0.00,,,0.00,VWS V14.01,2013-03-04 05:10:00,
2013-03-04 00:15:00,25.8,21.4,29.73,SW,225,0.0,2.0,83,0.00,,,0.00,VWS V14.01,2013-03-04 05:15:00,
2013-03-04 00:20:00,25.8,21.4,29.73,SW,225,0.0,1.0,83,0.00,,,0.00,VWS V14.01,2013-03-04 05:20:00,
2013-03-04 00:25:00,25.8,21.4,29.73,SW,225,1.0,3.0,83,0.00,,,0.00,VWS V14.01,2013-03-04 05:25:00,
2013-03-04 00:30:00,25.7,21.3,29.73,SW,225,0.0,2.0,83,0.00,,,0.00,VWS V14.01,2013-03-04 05:30:00,
2013-03-04 00:35:00,25.7,21.3,29.73,SW,225,0.0,2.0,83,0.00,,,0.00,VWS V14.01,2013-03-04 05:35:00,
2013-03-04 00:40:00,25.7,21.3,29.74,SW,225,1.0,4.0,83,0.00,,,0.00,VWS V14.01,2013-03-04 05:40:00,
2013-03-04 00:45:00,25.6,21.2,29.74,SW,225,1.0,3.0,83,0.00,,,0.00,VWS V14.01,2013-03-04 05:45:00,
2013-03-04 00:50:00,25.6,21.2,29.74,SW,225,1.0,3.0,83,0.00,,,0.00,VWS V14.01,2013-03-04 05:50:00,
2013-03-04 00:55:00,25.6,21.2,29.74,SW,225,0.0,4.0,83,0.00,,,0.00,VWS V14.01,2013-03-04 05:55:00,
2013-03-04 01:00:00,25.6,21.2,29.74,WSW,248,1.0,4.0,83,0.00,,,0.00,VWS V14.01,2013-03-04 06:00:00,
2013-03-04 01:05:00,25.6,21.2,29.74,WSW,248,0.0,1.0,83,0.00,,,0.00,VWS V14.01,2013-03-04 06:05:00,
2013-03-04 01:10:00,25.5,21.1,29.74,WSW,248,1.0,3.0,83,0.00,,,0.00,VWS V14.01,2013-03-04 06:10:00,
2013-03-04 01:15:00,25.4,21.0,29.74,WSW,248,1.0,3.0,83,0.00,,,0.00,VWS V14.01,2013-03-04 06:15:00,
2013-03-04 01:20:00,25.4,21.2,29.74,WSW,248,0.0,0.0,84,0.00,,,0.00,VWS V14.01,2013-03-04 06:20:00,
2013-03-04 01:25:00,25.3,21.1,29.74,WSW,248,0.0,2.0,84,0.00,,,0.00,VWS V14.01,2013-03-04 06:25:00,
2013-03-04 01:30:00,25.3,21.1,29.74,WSW,248,1.0,3.0,84,0.00,,,0.00,VWS V14.01,2013-03-04 06:30:00,
2013-03-04 01:35:00,25.2,21.0,29.74,WSW,248,0.0,2.0,84,0.00,,,0.00,VWS V14.01,2013-03-04 06:35:00,
2013-03-04 01:40:00,25.1,21.0,29.74,WSW,248,0.0,2.0,84,0.00,,,0.00,VWS V14.01,2013-03-04 06:40:00,
2013-03-04 01:45:00,25.1,21.2,29.74,WSW,248,0.0,0.0,85,0.00,,,0.00,VWS V14.01,2013-03-04 06:45:00,
2013-03-04 01:50:00,25.1,21.2,29.74,WSW,248,0.0,0.0,85,0.00,,,0.00,VWS V14.01,2013-03-04 06:50:00,
2013-03-04 01:55:00,25.0,21.1,29.74,WSW,248,0.0,2.0,85,0.00,,,0.00,VWS V14.01,2013-03-04 06:55:00,
2013-03-04 02:00:00,25.0,21.1,29.74,WSW,248,0.0,1.0,85,0.00,,,0.00,VWS V14.01,2013-03-04 07:00:00,
2013-03-04 02:05:00,24.9,21.0,29.74,WSW,248,0.0,0.0,85,0.00,,,0.00,VWS V14.01,2013-03-04 07:05:00,
2013-03-04 02:10:00,24.8,21.2,29.74,WSW,248,0.0,1.0,86,0.00,,,0.00,VWS V14.01,2013-03-04 07:10:00,
2013-03-04 02:15:00,24.8,21.2,29.74,WSW,248,0.0,3.0,86,0.00,,,0.00,VWS V14.01,2013-03-04 07:15:00,
2013-03-04 02:20:00,24.7,21.1,29.74,WSW,248,0.0,2.0,86,0.00,,,0.00,VWS V14.01,2013-03-04 07:20:00,
2013-03-04 02:25:00,24.6,21.0,29.74,WSW,248,0.0,0.0,86,0.00,,,0.00,VWS V14.01,2013-03-04 07:25:00,
2013-03-04 02:30:00,24.6,21.3,29.74,WSW,248,0.0,0.0,87,0.00,,,0.00,VWS V14.01,2013-03-04 07:30:00,
2013-03-04 02:35:00,24.5,21.2,29.74,WSW,248,0.0,0.0,87,0.00,,,0.00,VWS V14.01,2013-03-04 07:35:00,
2013-03-04 02:40:00,24.5,21.2,29.74,WSW,248,0.0,0.0,87,0.00,,,0.00,VWS V14.01,2013-03-04 07:40:00,
2013-03-04 02:45:00,24.4,21.1,29.74,WSW,248,0.0,2.0,87,0.00,,,0.00,VWS V14.01,2013-03-04 07:45:00,
2013-03-04 02:50:00,24.4,21.1,29.74,WSW,248,0.0,2.0,87,0.00,,,0.00,VWS V14.01,2013-03-04 07:50:00,
2013-03-04 02:55:00,24.3,21.0,29.74,WSW,248,0.0,2.0,87,0.00,,,0.00,VWS V14.01,2013-03-04 07:55:00,
2013-03-04 03:00:00,24.3,21.0,29.74,WSW,248,0.0,3.0,87,0.00,,,0.00,VWS V14.01,2013-03-04 08:00:00,
2013-03-04 03:05:00,24.3,21.0,29.74,WSW,248,0.0,2.0,87,0.00,,,0.00,VWS V14.01,2013-03-04 08:05:00,
2013-03-04 03:10:00,24.2,20.9,29.74,WSW,248,0.0,3.0,87,0.00,,,0.00,VWS V14.01,2013-03-04 08:10:00,
2013-03-04 03:15:00,24.1,20.8,29.74,WSW,248,0.0,1.0,87,0.00,,,0.00,VWS V14.01,2013-03-04 08:15:00,
2013-03-04 03:20:00,24.1,20.8,29.74,WSW,248,0.0,0.0,87,0.00,,,0.00,VWS V14.01,2013-03-04 08:20:00,
2013-03-04 03:25:00,24.1,20.8,29.74,WSW,248,0.0,0.0,87,0.00,,,0.00,VWS V14.01,2013-03-04 08:25:00,
2013-03-04 03:30:00,24.0,20.7,29.74,WSW,248,0.0,0.0,87,0.00,,,0.00,VWS V14.01,2013-03-04 08:30:00,
2013-03-04 03:35:00,24.0,20.7,29.74,WSW,248,0.0,0.0,87,0.00,,,0.00,VWS V14.01,2013-03-04 08:35:00,
2013-03-04 03:40:00,24.1,20.8,29.74,WSW,248,0.0,0.0,87,0.00,,,0.00,VWS V14.01,2013-03-04 08:40:00,
2013-03-04 03:45:00,24.1,20.8,29.74,WSW,248,0.0,3.0,87,0.00,,,0.00,VWS V14.01,2013-03-04 08:45:00,
2013-03-04 03:50:00,24.0,20.7,29.74,WSW,248,0.0,2.0,87,0.00,,,0.00,VWS V14.01,2013-03-04 08:50:00,
2013-03-04 03:55:00,24.0,20.7,29.74,WSW,248,0.0,1.0,87,0.00,,,0.00,VWS V14.01,2013-03-04 08:55:00,
2013-03-04 04:00:00,24.0,20.7,29.75,WSW,248,0.0,0.0,87,0.00,,,0.00,VWS V14.01,2013-03-04 09:00:00,
2013-03-04 04:05:00,24.0,21.0,29.75,WSW,248,0.0,0.0,88,0.00,,,0.00,VWS V14.01,2013-03-04 09:05:00,
2013-03-04 04:10:00,24.0,21.0,29.75,WSW,248,0.0,0.0,88,0.00,,,0.00,VWS V14.01,2013-03-04 09:10:00,
2013-03-04 04:15:00,24.0,21.0,29.75,WSW,248,1.0,2.0,88,0.00,,,0.00,VWS V14.01,2013-03-04 09:15:00,
2013-03-04 04:20:00,23.9,20.9,29.75,WSW,248,1.0,2.0,88,0.00,,,0.00,VWS V14.01,2013-03-04 09:20:00,
2013-03-04 04:25:00,23.9,20.9,29.75,WSW,248,0.0,0.0,88,0.00,,,0.00,VWS V14.01,2013-03-04 09:25:00,
2013-03-04 04:30:00,23.9,20.9,29.75,WSW,248,0.0,0.0,88,0.00,,,0.00,VWS V14.01,2013-03-04 09:30:00,
2013-03-04 04:35:00,23.9,20.9,29.75,WSW,248,0.0,0.0,88,0.00,,,0.00,VWS V14.01,2013-03-04 09:35:00,
2013-03-04 04:40:00,23.8,20.8,29.75,WSW,248,0.0,2.0,88,0.00,,,0.00,VWS V14.01,2013-03-04 09:40:00,
2013-03-04 04:45:00,23.8,20.8,29.75,WSW,248,0.0,0.0,88,0.00,,,0.00,VWS V14.01,2013-03-04 09:45:00,
2013-03-04 04:50:00,23.8,20.8,29.75,WSW,248,0.0,0.0,88,0.00,,,0.00,VWS V14.01,2013-03-04 09:50:00,
2013-03-04 04:55:00,23.8,20.8,29.75,WSW,248,0.0,0.0,88,0.00,,,0.00,VWS V14.01,2013-03-04 09:55:00,
2013-03-04 05:00:00,23.8,20.8,29.75,WSW,248,0.0,0.0,88,0.00,,,0.00,VWS V14.01,2013-03-04 10:00:00,
2013-03-04 05:05:00,23.8,21.0,29.75,WSW,248,0.0,1.0,89,0.00,,,0.00,VWS V14.01,2013-03-04 10:05:00,
2013-03-04 05:10:00,23.8,21.0,29.75,WSW,248,0.0,0.0,89,0.00,,,0.00,VWS V14.01,2013-03-04 10:10:00,
2013-03-04 05:15:00,23.8,21.0,29.75,WSW,248,0.0,0.0,89,0.00,,,0.00,VWS V14.01,2013-03-04 10:15:00,
2013-03-04 05:20:00,23.8,21.0,29.76,WSW,248,0.0,0.0,89,0.00,,,0.00,VWS V14.01,2013-03-04 10:20:00,
2013-03-04 05:25:00,23.8,21.0,29.76,WSW,248,0.0,0.0,89,0.00,,,0.00,VWS V14.01,2013-03-04 10:25:00,
2013-03-04 05:30:00,23.8,21.0,29.76,WSW,248,0.0,0.0,89,0.00,,,0.00,VWS V14.01,2013-03-04 10:30:00,
2013-03-04 05:35:00,23.7,20.9,29.76,WSW,248,0.0,0.0,89,0.00,,,0.00,VWS V14.01,2013-03-04 10:35:00,
2013-03-04 05:40:00,23.7,20.9,29.75,WSW,248,0.0,0.0,89,0.00,,,0.00,VWS V14.01,2013-03-04 10:40:00,
2013-03-04 05:45:00,23.7,20.9,29.75,WSW,248,0.0,0.0,89,0.00,,,0.00,VWS V14.01,2013-03-04 10:45:00,
2013-03-04 05:50:00,23.7,20.9,29.76,WSW,248,0.0,0.0,89,0.00,,,0.00,VWS V14.01,2013-03-04 10:50:00,
2013-03-04 05:55:00,23.6,20.8,29.75,WSW,248,0.0,0.0,89,0.00,,,0.00,VWS V14.01,2013-03-04 10:55:00,
2013-03-04 06:00:00,23.6,20.8,29.76,WSW,248,0.0,1.0,89,0.00,,,0.00,VWS V14.01,2013-03-04 11:00:00,
2013-03-04 06:05:00,23.6,20.8,29.76,WSW,248,0.0,2.0,89,0.00,,,0.00,VWS V14.01,2013-03-04 11:05:00,
2013-03-04 06:10:00,23.6,20.8,29.76,WSW,248,0.0,2.0,89,0.00,,,0.00,VWS V14.01,2013-03-04 11:10:00,
2013-03-04 06:15:00,23.5,20.7,29.76,WSW,248,0.0,2.0,89,0.00,,,0.00,VWS V14.01,2013-03-04 11:15:00,
2013-03-04 06:20:00,23.5,20.7,29.76,WSW,248,0.0,0.0,89,0.00,,,0.00,VWS V14.01,2013-03-04 11:20:00,
2013-03-04 06:25:00,23.5,20.7,29.76,WSW,248,0.0,0.0,89,0.00,,,0.00,VWS V14.01,2013-03-04 11:25:00,
2013-03-04 06:30:00,23.5,20.7,29.76,WSW,248,0.0,2.0,89,0.00,,,0.00,VWS V14.01,2013-03-04 11:30:00,
2013-03-04 06:35:00,23.5,20.7,29.76,WSW,248,0.0,2.0,89,0.00,,,0.00,VWS V14.01,2013-03-04 11:35:00,
2013-03-04 06:40:00,23.4,20.6,29.76,WSW,248,0.0,1.0,89,0.00,,,0.00,VWS V14.01,2013-03-04 11:40:00,
2013-03-04 06:45:00,23.3,20.5,29.76,WSW,248,0.0,0.0,89,0.00,,,0.00,VWS V14.01,2013-03-04 11:45:00,
2013-03-04 06:50:00,23.3,20.5,29.77,WSW,248,0.0,0.0,89,0.00,,,0.00,VWS V14.01,2013-03-04 11:50:00,
2013-03-04 06:55:00,23.3,20.5,29.77,WSW,248,0.0,0.0,89,0.00,,,0.00,VWS V14.01,2013-03-04 11:55:00,
2013-03-04 07:00:00,23.3,20.3,29.76,WSW,248,0.0,0.0,88,0.00,,,0.00,VWS V14.01,2013-03-04 12:00:00,
2013-03-04 07:05:00,23.3,20.3,29.77,WSW,248,0.0,0.0,88,0.00,,,0.00,VWS V14.01,2013-03-04 12:05:00,
2013-03-04 07:10:00,23.4,20.4,29.77,WSW,248,0.0,0.0,88,0.00,,,0.00,VWS V14.01,2013-03-04 12:10:00,
2013-03-04 07:15:00,23.5,20.2,29.77,WSW,248,0.0,0.0,87,0.00,,,0.00,VWS V14.01,2013-03-04 12:15:00,
2013-03-04 07:20:00,23.6,20.3,29.77,WSW,248,0.0,0.0,87,0.00,,,0.00,VWS V14.01,2013-03-04 12:20:00,
2013-03-04 07:25:00,23.6,20.3,29.77,WSW,248,0.0,0.0,87,0.00,,,0.00,VWS V14.01,2013-03-04 12:25:00,
2013-03-04 07:30:00,23.7,20.4,29.77,WSW,248,0.0,0.0,87,0.00,,,0.00,VWS V14.01,2013-03-04 12:30:00,
2013-03-04 07:35:00,23.9,20.3,29.77,WSW,248,0.0,0.0,86,0.00,,,0.00,VWS V14.01,2013-03-04 12:35:00,
2013-03-04 07:40:00,23.9,20.1,29.77,WSW,248,0.0,0.0,85,0.00,,,0.00,VWS V14.01,2013-03-04 12:40:00,
2013-03-04 07:45:00,24.0,20.1,29.77,WSW,248,0.0,2.0,85,0.00,,,0.00,VWS V14.01,2013-03-04 12:45:00,
2013-03-04 07:50:00,24.0,19.9,29.77,WSW,248,0.0,3.0,84,0.00,,,0.00,VWS V14.01,2013-03-04 12:50:00,
2013-03-04 07:55:00,24.0,19.9,29.77,WSW,248,0.0,2.0,84,0.00,,,0.00,VWS V14.01,2013-03-04 12:55:00,
2013-03-04 08:00:00,24.1,20.0,29.77,WSW,248,0.0,0.0,84,0.00,,,0.00,VWS V14.01,2013-03-04 13:00:00,
2013-03-04 08:05:00,24.2,20.1,29.77,WSW,248,0.0,1.0,84,0.00,,,0.00,VWS V14.01,2013-03-04 13:05:00,
2013-03-04 08:10:00,24.3,20.2,29.77,SW,225,0.0,3.0,84,0.00,,,0.00,VWS V14.01,2013-03-04 13:10:00,
2013-03-04 08:15:00,24.3,20.2,29.76,ENE,68,1.0,3.0,84,0.00,,,0.00,VWS V14.01,2013-03-04 13:15:00,
2013-03-04 08:20:00,24.4,20.3,29.76,ENE,68,1.0,2.0,84,0.00,,,0.00,VWS V14.01,2013-03-04 13:20:00,
2013-03-04 08:25:00,24.5,20.4,29.76,ENE,68,1.0,3.0,84,0.00,,,0.00,VWS V14.01,2013-03-04 13:25:00,
2013-03-04 08:30:00,24.6,20.5,29.76,ENE,68,0.0,2.0,84,0.00,,,0.00,VWS V14.01,2013-03-04 13:30:00,
2013-03-04 08:35:00,24.7,20.3,29.76,SE,135,2.0,5.0,83,0.00,,,0.00,VWS V14.01,2013-03-04 13:35:00,
2013-03-04 08:40:00,24.7,20.3,29.76,SE,135,1.0,3.0,83,0.00,,,0.00,VWS V14.01,2013-03-04 13:40:00,
2013-03-04 08:45:00,24.7,20.3,29.76,SE,135,1.0,3.0,83,0.00,,,0.00,VWS V14.01,2013-03-04 13:45:00,
2013-03-04 08:50:00,24.8,20.7,29.76,SE,135,0.0,2.0,84,0.00,,,0.00,VWS V14.01,2013-03-04 13:50:00,
2013-03-04 08:55:00,25.1,20.7,29.76,SE,135,0.0,2.0,83,0.00,,,0.00,VWS V14.01,2013-03-04 13:55:00,
2013-03-04 09:00:00,25.4,21.0,29.76,SE,135,1.0,3.0,83,0.00,,,0.00,VWS V14.01,2013-03-04 14:00:00,
2013-03-04 09:05:00,25.7,21.3,29.76,SE,135,1.0,4.0,83,0.00,,,0.00,VWS V14.01,2013-03-04 14:05:00,
2013-03-04 09:10:00,25.8,21.1,29.77,WNW,292,2.0,4.0,82,0.00,,,0.00,VWS V14.01,2013-03-04 14:10:00,
2013-03-04 09:15:00,25.6,20.9,29.77,WNW,292,1.0,3.0,82,0.00,,,0.00,VWS V14.01,2013-03-04 14:15:00,
2013-03-04 09:20:00,25.6,20.9,29.77,WNW,292,2.0,5.0,82,0.00,,,0.00,VWS V14.01,2013-03-04 14:20:00,
2013-03-04 09:25:00,25.6,20.9,29.77,SSE,158,0.0,3.0,82,0.00,,,0.00,VWS V14.01,2013-03-04 14:25:00,
2013-03-04 09:30:00,25.9,20.9,29.77,SW,225,1.0,4.0,81,0.00,,,0.00,VWS V14.01,2013-03-04 14:30:00,
2013-03-04 09:35:00,26.9,21.0,29.76,SSE,151,4.0,6.0,78,0.02,,,0.00,VWS V14.01,2013-03-04 14:35:00,
2013-03-04 09:38:00,25.9,20.9,29.77,SW,225,1.0,4.0,81,0.00,,,0.00,VWS V14.01,2013-03-04 14:38:00,
2013-03-04 09:40:00,26.0,21.0,29.77,WSW,245,0.0,3.0,81,0.02,,,0.00,VWS V14.01,2013-03-04 14:40:00,
2013-03-04 09:43:00,26.0,20.7,29.77,WSW,245,0.0,0.0,80,0.02,,,0.00,VWS V14.01,2013-03-04 14:43:00,
2013-03-04 09:45:00,26.1,20.8,29.77,WSW,245,0.0,3.0,80,0.02,,,0.00,VWS V14.01,2013-03-04 14:45:00,
2013-03-04 09:48:00,26.2,20.9,29.77,SSW,195,2.0,4.0,80,0.02,,,0.00,VWS V14.01,2013-03-04 14:48:00,
2013-03-04 09:50:00,26.2,20.9,29.76,SW,227,4.0,5.0,80,0.02,,,0.00,VWS V14.01,2013-03-04 14:50:00,
2013-03-04 09:53:00,26.2,20.6,29.76,WSW,256,4.0,5.0,79,0.02,,,0.00,VWS V14.01,2013-03-04 14:53:00,
2013-03-04 09:55:00,26.3,20.7,29.77,SW,217,0.0,5.0,79,0.02,,,0.00,VWS V14.01,2013-03-04 14:55:00,
2013-03-04 09:58:00,26.3,20.7,29.77,SSW,213,2.0,2.0,79,0.02,,,0.00,VWS V14.01,2013-03-04 14:58:00,
2013-03-04 10:00:00,26.4,20.8,29.77,South,177,1.0,7.0,79,0.02,,,0.00,VWS V14.01,2013-03-04 15:00:00,
2013-03-04 10:03:00,26.4,20.8,29.77,WSW,255,4.0,5.0,79,0.02,,,0.00,VWS V14.01,2013-03-04 15:03:00,
2013-03-04 10:05:00,26.3,20.7,29.77,WSW,253,0.0,7.0,79,0.02,,,0.00,VWS V14.01,2013-03-04 15:05:00,
2013-03-04 10:08:00,26.2,20.6,29.77,WSW,242,2.0,5.0,79,0.02,,,0.00,VWS V14.01,2013-03-04 15:08:00,
2013-03-04 10:10:00,26.1,20.5,29.76,SSW,206,0.0,5.0,79,0.02,,,0.00,VWS V14.01,2013-03-04 15:10:00,
2013-03-04 10:13:00,26.1,20.5,29.76,SW,226,0.0,3.0,79,0.02,,,0.00,VWS V14.01,2013-03-04 15:13:00,
2013-03-04 10:15:00,26.2,20.6,29.76,SSW,202,2.0,3.0,79,0.02,,,0.00,VWS V14.01,2013-03-04 15:15:00,
2013-03-04 10:18:00,26.2,20.6,29.76,SW,225,0.0,5.0,79,0.02,,,0.00,VWS V14.01,2013-03-04 15:18:00,
2013-03-04 10:20:00,26.3,20.7,29.76,WSW,238,2.0,5.0,79,0.02,,,0.00,VWS V14.01,2013-03-04 15:20:00,
2013-03-04 10:23:00,26.4,21.1,29.76,West,277,1.0,4.0,80,0.02,,,0.00,VWS V14.01,2013-03-04 15:23:00,
2013-03-04 10:24:00,26.4,21.1,29.76,West,276,0.0,4.0,80,0.02,,,0.00,VWS V14.01,2013-03-04 15:24:00,
2013-03-04 10:25:00,26.6,21.3,29.76,West,277,2.0,4.0,80,0.02,,,0.00,VWS V14.01,2013-03-04 15:25:00,
2013-03-04 10:28:00,26.7,21.4,29.77,SSE,147,3.0,5.0,80,0.02,,,0.00,VWS V14.01,2013-03-04 15:28:00,
2013-03-04 10:29:00,26.7,21.1,29.77,ESE,106,1.0,5.0,79,0.02,,,0.00,VWS V14.01,2013-03-04 15:29:00,
2013-03-04 10:30:00,26.8,21.2,29.77,WSW,245,0.0,5.0,79,0.02,,,0.00,VWS V14.01,2013-03-04 15:30:00,
2013-03-04 10:33:00,26.9,21.3,29.77,SE,129,0.0,3.0,79,0.02,,,0.00,VWS V14.01,2013-03-04 15:33:00,
2013-03-04 10:34:00,26.9,21.3,29.77,SE,128,2.0,3.0,79,0.02,,,0.00,VWS V14.01,2013-03-04 15:34:00,
2013-03-04 10:35:00,26.9,21.0,29.76,SSE,151,4.0,6.0,78,0.02,,,0.00,VWS V14.01,2013-03-04 15:35:00,
2013-03-04 10:38:00,26.8,20.9,29.77,SSE,168,3.0,4.0,78,0.00,,,0.00,VWS V14.01,2013-03-04 15:38:00,
2013-03-04 10:39:00,26.8,20.9,29.77,South,169,1.0,4.0,78,0.00,,,0.00,VWS V14.01,2013-03-04 15:39:00,
2013-03-04 10:40:00,27.0,21.1,29.77,SW,217,2.0,5.0,78,0.00,,,0.00,VWS V14.01,2013-03-04 15:40:00,
2013-03-04 10:43:00,27.1,21.2,29.77,SSE,161,3.0,7.0,78,0.00,,,0.00,VWS V14.01,2013-03-04 15:43:00,
2013-03-04 10:44:00,27.2,21.3,29.77,SSE,161,1.0,7.0,78,0.00,,,0.00,VWS V14.01,2013-03-04 15:44:00,
2013-03-04 10:45:00,27.2,21.0,29.77,SSE,148,3.0,7.0,77,0.00,,,0.00,VWS V14.01,2013-03-04 15:45:00,
2013-03-04 10:48:00,27.1,20.9,29.77,SSE,157,1.0,6.0,77,0.00,,,0.00,VWS V14.01,2013-03-04 15:48:00,
2013-03-04 10:49:00,27.1,20.9,29.77,South,185,4.0,6.0,77,0.00,,,0.00,VWS V14.01,2013-03-04 15:49:00,
2013-03-04 10:50:00,27.2,21.0,29.77,WSW,249,2.0,6.0,77,0.00,,,0.00,VWS V14.01,2013-03-04 15:50:00,
2013-03-04 10:53:00,27.3,21.1,29.76,WSW,252,1.0,7.0,77,0.00,,,0.00,VWS V14.01,2013-03-04 15:53:00,
2013-03-04 10:54:00,27.3,21.1,29.76,WSW,246,3.0,7.0,77,0.00,,,0.00,VWS V14.01,2013-03-04 15:54:00,
2013-03-04 10:55:00,27.3,20.8,29.76,West,276,6.0,7.0,76,0.00,,,0.00,VWS V14.01,2013-03-04 15:55:00,
2013-03-04 10:58:00,27.3,20.8,29.76,WSW,254,2.0,6.0,76,0.00,,,0.00,VWS V14.01,2013-03-04 15:58:00,
2013-03-04 10:59:00,27.3,20.8,29.76,WSW,254,2.0,6.0,76,0.00,,,0.00,VWS V14.01,2013-03-04 15:59:00,
2013-03-04 11:00:00,27.3,20.8,29.76,WSW,256,0.0,6.0,76,0.00,,,0.00,VWS V14.01,2013-03-04 16:00:00,
2013-03-04 11:03:00,27.3,20.8,29.76,SW,220,1.0,4.0,76,0.00,,,0.00,VWS V14.01,2013-03-04 16:03:00,
2013-03-04 11:04:00,27.4,20.8,29.76,South,186,4.0,5.0,76,0.00,,,0.00,VWS V14.01,2013-03-04 16:04:00,
2013-03-04 11:05:00,27.4,20.8,29.76,SSE,154,3.0,5.0,76,0.00,,,0.00,VWS V14.01,2013-03-04 16:05:00,
2013-03-04 11:08:00,27.6,21.0,29.77,South,188,2.0,4.0,76,0.00,,,0.00,VWS V14.01,2013-03-04 16:08:00,
2013-03-04 11:09:00,27.6,21.0,29.76,South,189,0.0,4.0,76,0.00,,,0.00,VWS V14.01,2013-03-04 16:09:00,
2013-03-04 11:10:00,27.7,21.1,29.76,South,190,1.0,4.0,76,0.00,,,0.00,VWS V14.01,2013-03-04 16:10:00,
2013-03-04 11:14:00,28.0,21.1,29.76,SSW,198,0.0,6.0,75,0.00,,,0.00,VWS V14.01,2013-03-04 16:14:00,
2013-03-04 11:15:00,28.1,21.2,29.76,SSW,198,1.0,6.0,75,0.00,,,0.00,VWS V14.01,2013-03-04 16:15:00,
2013-03-04 11:19:00,28.5,21.3,29.76,WNW,283,1.0,4.0,74,0.00,,,0.00,VWS V14.01,2013-03-04 16:19:00,
2013-03-04 11:20:00,28.5,21.3,29.76,West,273,0.0,4.0,74,0.00,,,0.00,VWS V14.01,2013-03-04 16:20:00,
2013-03-04 11:24:00,28.7,20.8,29.76,SSE,165,1.0,2.0,72,0.00,,,0.00,VWS V14.01,2013-03-04 16:24:00,
2013-03-04 11:25:00,28.8,21.2,29.76,SW,222,4.0,4.0,73,0.00,,,0.00,VWS V14.01,2013-03-04 16:25:00,
2013-03-04 11:29:00,29.0,21.1,29.76,SW,227,6.0,7.0,72,0.00,,,0.00,VWS V14.01,2013-03-04 16:29:00,
2013-03-04 11:30:00,29.1,21.2,29.76,West,264,2.0,7.0,72,0.00,,,0.00,VWS V14.01,2013-03-04 16:30:00,
2013-03-04 11:31:00,29.2,21.0,29.76,SW,236,3.0,7.0,71,0.00,,,0.00,VWS V14.01,2013-03-04 16:31:00,
2013-03-04 11:34:00,29.3,21.1,29.76,SW,232,1.0,5.0,71,0.00,,,0.00,VWS V14.01,2013-03-04 16:34:00,
2013-03-04 11:35:00,29.3,21.1,29.76,SW,232,0.0,5.0,71,0.00,,,0.00,VWS V14.01,2013-03-04 16:35:00,
2013-03-04 11:36:00,29.4,21.2,29.76,SW,232,1.0,1.0,71,0.00,,,0.00,VWS V14.01,2013-03-04 16:36:00,
2013-03-04 11:39:00,29.5,20.9,29.76,SSW,196,0.0,7.0,70,0.00,,,0.00,VWS V14.01,2013-03-04 16:39:00,
2013-03-04 11:40:00,29.5,20.9,29.76,SW,216,1.0,7.0,70,0.00,,,0.00,VWS V14.01,2013-03-04 16:40:00,
2013-03-04 11:41:00,29.5,20.9,29.76,SSW,213,0.0,7.0,70,0.00,,,0.00,VWS V14.01,2013-03-04 16:41:00,
2013-03-04 11:44:00,29.4,20.5,29.76,ESE,112,4.0,4.0,69,0.00,,,0.00,VWS V14.01,2013-03-04 16:44:00,
2013-03-04 11:45:00,29.4,20.5,29.76,SE,128,4.0,7.0,69,0.00,,,0.00,VWS V14.01,2013-03-04 16:45:00,
2013-03-04 11:46:00,29.2,20.3,29.76,SE,126,2.0,7.0,69,0.00,,,0.00,VWS V14.01,2013-03-04 16:46:00,
2013-03-04 11:50:00,29.0,20.5,29.76,ENE,78,0.0,4.0,70,0.00,,,0.00,VWS V14.01,2013-03-04 16:50:00,
2013-03-04 11:51:00,29.1,20.9,29.76,SW,223,1.0,4.0,71,0.00,,,0.00,VWS V14.01,2013-03-04 16:51:00,
2013-03-04 11:55:00,29.3,20.4,29.76,SSE,153,0.0,4.0,69,0.00,,,0.00,VWS V14.01,2013-03-04 16:55:00,
2013-03-04 11:56:00,29.3,20.4,29.76,SSE,153,0.0,4.0,69,0.00,,,0.00,VWS V14.01,2013-03-04 16:56:00,
2013-03-04 12:00:00,29.4,20.5,29.76,ESE,123,0.0,4.0,69,0.00,,,0.00,VWS V14.01,2013-03-04 17:00:00,
2013-03-04 12:01:00,29.3,20.4,29.76,NE,47,3.0,3.0,69,0.00,,,0.00,VWS V14.01,2013-03-04 17:01:00,
2013-03-04 12:05:00,28.7,20.2,29.76,ESE,109,1.0,5.0,70,0.00,,,0.00,VWS V14.01,2013-03-04 17:05:00,
2013-03-04 12:06:00,28.7,20.2,29.76,ESE,109,0.0,0.0,70,0.00,,,0.00,VWS V14.01,2013-03-04 17:06:00,
2013-03-04 12:10:00,28.8,20.3,29.76,South,190,2.0,5.0,70,0.00,,,0.00,VWS V14.01,2013-03-04 17:10:00,
2013-03-04 12:11:00,28.9,20.4,29.76,SW,221,4.0,4.0,70,0.00,,,0.00,VWS V14.01,2013-03-04 17:11:00,
2013-03-04 12:12:00,28.9,20.0,29.76,SW,221,0.0,4.0,69,0.00,,,0.00,VWS V14.01,2013-03-04 17:12:00,
2013-03-04 12:15:00,28.9,20.0,29.76,WSW,248,1.0,4.0,69,0.00,,,0.00,VWS V14.01,2013-03-04 17:15:00,
2013-03-04 12:16:00,28.9,20.0,29.76,WNW,295,5.0,5.0,69,0.00,,,0.00,VWS V14.01,2013-03-04 17:16:00,
2013-03-04 12:17:00,28.8,19.9,29.76,WNW,285,4.0,5.0,69,0.00,,,0.00,VWS V14.01,2013-03-04 17:17:00,
2013-03-04 12:20:00,28.6,19.7,29.76,WNW,300,5.0,5.0,69,0.00,,,0.00,VWS V14.01,2013-03-04 17:20:00,
2013-03-04 12:21:00,28.6,19.7,29.76,WSW,252,3.0,4.0,69,0.00,,,0.00,VWS V14.01,2013-03-04 17:21:00,
2013-03-04 12:22:00,28.5,19.6,29.76,WSW,257,2.0,4.0,69,0.00,,,0.00,VWS V14.01,2013-03-04 17:22:00,
2013-03-04 12:25:00,28.6,20.4,29.76,SW,227,4.0,5.0,71,0.00,,,0.00,VWS V14.01,2013-03-04 17:25:00,
2013-03-04 12:26:00,28.6,20.1,29.76,WSW,238,4.0,6.0,70,0.00,,,0.00,VWS V14.01,2013-03-04 17:26:00,
2013-03-04 12:27:00,28.7,20.2,29.76,WSW,237,0.0,6.0,70,0.00,,,0.00,VWS V14.01,2013-03-04 17:27:00,
2013-03-04 12:30:00,28.9,20.4,29.76,SW,220,3.0,6.0,70,0.00,,,0.00,VWS V14.01,2013-03-04 17:30:00,
2013-03-04 12:31:00,29.0,20.5,29.76,SW,225,4.0,7.0,70,0.00,,,0.00,VWS V14.01,2013-03-04 17:31:00,
2013-03-04 12:32:00,29.1,20.2,29.75,SW,227,1.0,7.0,69,0.00,,,0.00,VWS V14.01,2013-03-04 17:32:00,
2013-03-04 12:35:00,29.2,20.3,29.75,ESE,111,1.0,7.0,69,0.00,,,0.00,VWS V14.01,2013-03-04 17:35:00,
2013-03-04 12:36:00,29.3,20.7,29.75,WSW,237,1.0,5.0,70,0.00,,,0.00,VWS V14.01,2013-03-04 17:36:00,
2013-03-04 12:37:00,29.3,20.7,29.75,SW,236,2.0,5.0,70,0.00,,,0.00,VWS V14.01,2013-03-04 17:37:00,
2013-03-04 12:40:00,29.6,20.7,29.75,ESE,111,0.0,5.0,69,0.00,,,0.00,VWS V14.01,2013-03-04 17:40:00,
2013-03-04 12:42:00,29.6,20.7,29.75,ESE,111,0.0,0.0,69,0.00,,,0.00,VWS V14.01,2013-03-04 17:42:00,
2013-03-04 12:45:00,29.7,20.5,29.75,WSW,253,5.0,7.0,68,0.00,,,0.00,VWS V14.01,2013-03-04 17:45:00,
2013-03-04 12:47:00,29.7,20.5,29.75,WSW,246,1.0,7.0,68,0.00,,,0.00,VWS V14.01,2013-03-04 17:47:00,
2013-03-04 12:50:00,29.5,20.3,29.75,WSW,253,2.0,7.0,68,0.00,,,0.00,VWS V14.01,2013-03-04 17:50:00,
2013-03-04 12:52:00,29.4,20.2,29.75,WSW,257,4.0,6.0,68,0.00,,,0.00,VWS V14.01,2013-03-04 17:52:00,
2013-03-04 12:55:00,29.4,20.5,29.75,SW,215,0.0,6.0,69,0.00,,,0.00,VWS V14.01,2013-03-04 17:55:00,
2013-03-04 12:56:00,29.4,20.5,29.75,SW,215,0.0,6.0,69,0.00,,,0.00,VWS V14.01,2013-03-04 17:56:00,
2013-03-04 12:57:00,29.4,20.5,29.75,SW,215,2.0,2.0,69,0.00,,,0.00,VWS V14.01,2013-03-04 17:57:00,
2013-03-04 13:00:00,29.6,20.4,29.75,NNW,342,2.0,6.0,68,0.00,,,0.00,VWS V14.01,2013-03-04 18:00:00,
2013-03-04 13:01:00,29.6,20.4,29.75,NNW,342,2.0,6.0,68,0.00,,,0.00,VWS V14.01,2013-03-04 18:01:00,
2013-03-04 13:02:00,29.6,20.7,29.75,WSW,244,1.0,4.0,69,0.00,,,0.00,VWS V14.01,2013-03-04 18:02:00,
2013-03-04 13:03:00,29.6,20.7,29.75,WSW,244,0.0,4.0,69,0.00,,,0.00,VWS V14.01,2013-03-04 18:03:00,
2013-03-04 13:05:00,29.8,20.9,29.75,SW,222,5.0,7.0,69,0.00,,,0.00,VWS V14.01,2013-03-04 18:05:00,
2013-03-04 13:06:00,29.8,20.9,29.75,SW,214,5.0,5.0,69,0.00,,,0.00,VWS V14.01,2013-03-04 18:06:00,
2013-03-04 13:07:00,29.7,20.8,29.75,WNW,296,3.0,6.0,69,0.00,,,0.00,VWS V14.01,2013-03-04 18:07:00,
2013-03-04 13:08:00,29.7,20.5,29.75,WNW,291,5.0,6.0,68,0.00,,,0.00,VWS V14.01,2013-03-04 18:08:00,
2013-03-04 13:10:00,29.5,20.6,29.75,West,265,2.0,10.0,69,0.00,,,0.00,VWS V14.01,2013-03-04 18:10:00,
2013-03-04 13:11:00,29.5,20.6,29.75,West,265,2.0,10.0,69,0.00,,,0.00,VWS V14.01,2013-03-04 18:11:00,
2013-03-04 13:12:00,29.5,20.6,29.75,WNW,284,0.0,5.0,69,0.00,,,0.00,VWS V14.01,2013-03-04 18:12:00,
2013-03-04 13:13:00,29.5,20.9,29.75,WNW,284,1.0,5.0,70,0.00,,,0.00,VWS V14.01,2013-03-04 18:13:00,
2013-03-04 13:15:00,29.6,21.0,29.75,WNW,302,2.0,6.0,70,0.00,,,0.00,VWS V14.01,2013-03-04 18:15:00,
2013-03-04 13:16:00,29.6,21.0,29.75,WNW,302,2.0,6.0,70,0.00,,,0.00,VWS V14.01,2013-03-04 18:16:00,
2013-03-04 13:17:00,29.6,20.7,29.74,SE,127,3.0,5.0,69,0.00,,,0.00,VWS V14.01,2013-03-04 18:17:00,
2013-03-04 13:18:00,29.7,21.1,29.75,SSE,150,2.0,5.0,70,0.00,,,0.00,VWS V14.01,2013-03-04 18:18:00,
2013-03-04 13:20:00,29.7,21.1,29.75,SE,128,0.0,5.0,70,0.00,,,0.00,VWS V14.01,2013-03-04 18:20:00,
2013-03-04 13:21:00,29.7,21.1,29.75,SE,128,0.0,0.0,70,0.00,,,0.00,VWS V14.01,2013-03-04 18:21:00,
2013-03-04 13:22:00,29.8,21.6,29.75,SE,131,2.0,5.0,71,0.00,,,0.00,VWS V14.01,2013-03-04 18:22:00,
2013-03-04 13:23:00,29.8,21.2,29.75,SE,130,1.0,5.0,70,0.00,,,0.00,VWS V14.01,2013-03-04 18:23:00,
2013-03-04 13:25:00,29.8,21.6,29.75,East,94,0.0,5.0,71,0.00,,,0.00,VWS V14.01,2013-03-04 18:25:00,
2013-03-04 13:26:00,29.8,21.6,29.75,East,94,0.0,0.0,71,0.00,,,0.00,VWS V14.01,2013-03-04 18:26:00,
2013-03-04 13:27:00,29.9,21.3,29.75,WSW,242,5.0,9.0,70,0.00,,,0.00,VWS V14.01,2013-03-04 18:27:00,
2013-03-04 13:28:00,29.8,20.9,29.75,WSW,245,3.0,9.0,69,0.00,,,0.00,VWS V14.01,2013-03-04 18:28:00,
2013-03-04 13:29:00,29.8,20.9,29.75,WSW,245,0.0,9.0,69,0.00,,,0.00,VWS V14.01,2013-03-04 18:29:00,
2013-03-04 13:30:00,29.7,21.1,29.75,ESE,102,2.0,9.0,70,0.00,,,0.00,VWS V14.01,2013-03-04 18:30:00,
2013-03-04 13:34:00,29.6,21.0,29.75,SSE,157,0.0,4.0,70,0.01,,,0.01,VWS V14.01,2013-03-04 18:34:00,
2013-03-04 13:35:00,29.6,21.0,29.75,SSW,195,0.0,4.0,70,0.01,,,0.01,VWS V14.01,2013-03-04 18:35:00,
2013-03-04 13:39:00,29.7,21.5,29.75,West,279,2.0,6.0,71,0.01,,,0.01,VWS V14.01,2013-03-04 18:39:00,
2013-03-04 13:40:00,29.6,21.0,29.75,SSW,199,4.0,6.0,70,0.01,,,0.01,VWS V14.01,2013-03-04 18:40:00,
2013-03-04 13:44:00,29.4,20.8,29.75,SW,231,2.0,6.0,70,0.01,,,0.01,VWS V14.01,2013-03-04 18:44:00,
2013-03-04 13:45:00,29.4,20.8,29.75,SE,129,3.0,6.0,70,0.01,,,0.01,VWS V14.01,2013-03-04 18:45:00,
2013-03-04 13:49:00,29.2,20.6,29.75,South,179,3.0,4.0,70,0.01,,,0.01,VWS V14.01,2013-03-04 18:49:00,
2013-03-04 13:50:00,29.2,20.6,29.75,South,180,1.0,4.0,70,0.01,,,0.01,VWS V14.01,2013-03-04 18:50:00,
2013-03-04 13:54:00,29.3,20.7,29.75,SW,227,6.0,7.0,70,0.01,,,0.01,VWS V14.01,2013-03-04 18:54:00,
2013-03-04 13:55:00,29.3,20.7,29.75,SW,234,4.0,7.0,70,0.01,,,0.01,VWS V14.01,2013-03-04 18:55:00,
2013-03-04 13:59:00,29.1,20.9,29.76,SSE,167,1.0,8.0,71,0.01,,,0.01,VWS V14.01,2013-03-04 18:59:00,
2013-03-04 14:00:00,29.1,20.9,29.76,SW,231,2.0,8.0,71,0.01,,,0.01,VWS V14.01,2013-03-04 19:00:00,
2013-03-04 14:04:00,28.8,20.9,29.76,SW,236,1.0,9.0,72,0.01,,,0.01,VWS V14.01,2013-03-04 19:04:00,
2013-03-04 14:05:00,28.8,20.9,29.76,SW,236,1.0,9.0,72,0.01,,,0.01,VWS V14.01,2013-03-04 19:05:00,
2013-03-04 14:10:00,28.7,20.8,29.75,South,191,1.0,10.0,72,0.01,,,0.01,VWS V14.01,2013-03-04 19:10:00,
2013-03-04 14:15:00,28.7,21.5,29.76,SW,225,2.0,9.0,74,0.00,,,0.00,VWS V14.01,2013-03-04 19:15:00,
2013-03-04 14:20:00,28.7,21.8,29.76,South,180,2.0,4.0,75,0.00,,,0.00,VWS V14.01,2013-03-04 19:20:00,
2013-03-04 14:25:00,28.8,22.2,29.76,WSW,248,2.0,7.0,76,0.00,,,0.00,VWS V14.01,2013-03-04 19:25:00,
2013-03-04 14:30:00,29.0,22.4,29.76,SW,225,3.0,6.0,76,0.00,,,0.00,VWS V14.01,2013-03-04 19:30:00,
2013-03-04 14:35:00,29.0,22.1,29.76,SE,135,2.0,4.0,75,0.00,,,0.00,VWS V14.01,2013-03-04 19:35:00,
2013-03-04 14:40:00,28.8,22.2,29.76,SW,225,1.0,6.0,76,0.00,,,0.00,VWS V14.01,2013-03-04 19:40:00,
2013-03-04 14:45:00,28.9,22.3,29.77,SE,135,1.0,7.0,76,0.00,,,0.00,VWS V14.01,2013-03-04 19:45:00,
2013-03-04 14:50:00,29.1,21.9,29.77,WSW,248,3.0,7.0,74,0.00,,,0.00,VWS V14.01,2013-03-04 19:50:00,
2013-03-04 14:55:00,29.0,22.1,29.76,ESE,112,2.0,6.0,75,0.00,,,0.00,VWS V14.01,2013-03-04 19:55:00,
2013-03-04 15:00:00,29.0,22.1,29.76,SSW,202,3.0,10.0,75,0.00,,,0.00,VWS V14.01,2013-03-04 20:00:00,
2013-03-04 15:05:00,29.0,22.1,29.76,ESE,112,3.0,10.0,75,0.00,,,0.00,VWS V14.01,2013-03-04 20:05:00,
2013-03-04 15:10:00,29.0,22.4,29.77,SW,225,3.0,7.0,76,0.00,,,0.00,VWS V14.01,2013-03-04 20:10:00,
2013-03-04 15:15:00,29.0,22.7,29.77,SW,225,3.0,9.0,77,0.00,,,0.00,VWS V14.01,2013-03-04 20:15:00,
2013-03-04 15:20:00,28.8,22.8,29.77,SW,225,4.0,12.0,78,0.00,,,0.00,VWS V14.01,2013-03-04 20:20:00,
2013-03-04 15:25:00,28.5,22.8,29.77,WSW,248,3.0,6.0,79,0.00,,,0.00,VWS V14.01,2013-03-04 20:25:00,
2013-03-04 15:30:00,28.3,22.9,29.77,WSW,248,2.0,10.0,80,0.00,,,0.00,VWS V14.01,2013-03-04 20:30:00,
2013-03-04 15:35:00,28.2,22.5,29.78,SW,225,4.0,10.0,79,0.00,,,0.00,VWS V14.01,2013-03-04 20:35:00,
2013-03-04 15:40:00,28.0,22.6,29.78,WSW,248,2.0,6.0,80,0.00,,,0.00,VWS V14.01,2013-03-04 20:40:00,
2013-03-04 15:45:00,27.9,22.5,29.78,West,270,4.0,13.0,80,0.00,,,0.00,VWS V14.01,2013-03-04 20:45:00,
2013-03-04 15:50:00,27.5,22.5,29.78,SW,225,4.0,10.0,81,0.00,,,0.00,VWS V14.01,2013-03-04 20:50:00,
2013-03-04 15:55:00,27.1,22.4,29.78,West,270,3.0,12.0,82,0.00,,,0.00,VWS V14.01,2013-03-04 20:55:00,
2013-03-04 16:00:00,27.0,22.5,29.79,SW,225,4.0,13.0,83,0.00,,,0.00,VWS V14.01,2013-03-04 21:00:00,
2013-03-04 16:05:00,26.9,22.4,29.79,SW,225,3.0,9.0,83,0.00,,,0.00,VWS V14.01,2013-03-04 21:05:00,
2013-03-04 16:10:00,26.7,22.5,29.79,West,270,3.0,9.0,84,0.00,,,0.00,VWS V14.01,2013-03-04 21:10:00,
2013-03-04 16:15:00,26.5,22.3,29.79,WSW,248,4.0,10.0,84,0.01,,,0.01,VWS V14.01,2013-03-04 21:15:00,
2013-03-04 16:20:00,26.3,22.4,29.79,West,270,3.0,10.0,85,0.01,,,0.01,VWS V14.01,2013-03-04 21:20:00,
2013-03-04 16:25:00,26.2,22.6,29.79,SW,225,5.0,12.0,86,0.01,,,0.01,VWS V14.01,2013-03-04 21:25:00,
2013-03-04 16:30:00,25.7,20.7,29.83,WSW,253,2.0,10.0,81,0.03,,,0.02,VWS V14.01,2013-03-04 21:30:00,
2013-03-04 16:35:00,25.7,20.7,29.83,SSW,210,3.0,10.0,81,0.03,,,0.02,VWS V14.01,2013-03-04 21:35:00,
2013-03-04 16:38:00,26.1,22.5,29.80,SW,225,3.0,7.0,86,0.01,,,0.01,VWS V14.01,2013-03-04 21:38:00,
2013-03-04 16:40:00,25.7,20.4,29.83,SW,229,10.0,11.0,80,0.00,,,0.02,VWS V14.01,2013-03-04 21:40:00,
2013-03-04 16:43:00,25.8,22.2,29.80,West,263,2.0,10.0,86,0.04,,,0.02,VWS V14.01,2013-03-04 21:43:00,
2013-03-04 16:44:00,25.7,22.1,29.80,NW,309,1.0,10.0,86,0.04,,,0.02,VWS V14.01,2013-03-04 21:44:00,
2013-03-04 16:45:00,25.7,20.1,29.84,SW,230,5.0,10.0,79,0.00,,,0.02,VWS V14.01,2013-03-04 21:45:00,
2013-03-04 16:48:00,25.7,22.1,29.81,SW,222,3.0,7.0,86,0.04,,,0.02,VWS V14.01,2013-03-04 21:48:00,
2013-03-04 16:49:00,25.7,22.1,29.81,SSW,210,3.0,7.0,86,0.04,,,0.02,VWS V14.01,2013-03-04 21:49:00,
2013-03-04 16:50:00,25.8,20.2,29.84,NW,325,1.0,7.0,79,0.00,,,0.02,VWS V14.01,2013-03-04 21:50:00,
2013-03-04 16:53:00,25.6,22.0,29.81,West,273,5.0,6.0,86,0.04,,,0.02,VWS V14.01,2013-03-04 21:53:00,
2013-03-04 16:54:00,25.6,22.0,29.81,West,273,3.0,6.0,86,0.04,,,0.02,VWS V14.01,2013-03-04 21:54:00,
2013-03-04 16:55:00,25.9,20.0,29.84,SW,226,1.0,9.0,78,0.00,,,0.02,VWS V14.01,2013-03-04 21:55:00,
2013-03-04 16:58:00,25.5,21.9,29.81,SW,232,1.0,5.0,86,0.04,,,0.02,VWS V14.01,2013-03-04 21:58:00,
2013-03-04 16:59:00,25.5,21.9,29.81,SW,232,1.0,5.0,86,0.04,,,0.02,VWS V14.01,2013-03-04 21:59:00,
2013-03-04 17:00:00,25.9,20.0,29.85,WSW,250,1.0,6.0,78,0.00,,,0.02,VWS V14.01,2013-03-04 22:00:00,
2013-03-04 17:03:00,25.6,22.0,29.81,SW,215,4.0,6.0,86,0.04,,,0.02,VWS V14.01,2013-03-04 22:03:00,
2013-03-04 17:04:00,25.6,22.0,29.81,SW,215,2.0,6.0,86,0.04,,,0.02,VWS V14.01,2013-03-04 22:04:00,
2013-03-04 17:05:00,26.0,20.1,29.85,WSW,252,2.0,10.0,78,0.00,,,0.02,VWS V14.01,2013-03-04 22:05:00,
2013-03-04 17:08:00,25.6,21.7,29.81,WSW,237,1.0,8.0,85,0.04,,,0.02,VWS V14.01,2013-03-04 22:08:00,
2013-03-04 17:09:00,25.6,21.7,29.81,SSE,166,5.0,8.0,85,0.04,,,0.02,VWS V14.01,2013-03-04 22:09:00,
2013-03-04 17:10:00,25.9,20.3,29.85,WSW,244,1.0,10.0,79,0.00,,,0.02,VWS V14.01,2013-03-04 22:10:00,
2013-03-04 17:14:00,25.7,21.3,29.82,SW,215,1.0,13.0,83,0.04,,,0.02,VWS V14.01,2013-03-04 22:14:00,
2013-03-04 17:15:00,25.7,21.0,29.82,ESE,118,3.0,13.0,82,0.04,,,0.02,VWS V14.01,2013-03-04 22:15:00,
2013-03-04 17:19:00,25.8,21.1,29.82,West,265,4.0,6.0,82,0.03,,,0.02,VWS V14.01,2013-03-04 22:19:00,
2013-03-04 17:20:00,25.9,21.2,29.82,SSW,202,1.0,7.0,82,0.03,,,0.02,VWS V14.01,2013-03-04 22:20:00,
2013-03-04 17:24:00,25.8,20.8,29.82,ESE,110,3.0,10.0,81,0.03,,,0.02,VWS V14.01,2013-03-04 22:24:00,
2013-03-04 17:25:00,25.6,20.3,29.86,South,190,2.0,5.0,80,0.00,,,0.02,VWS V14.01,2013-03-04 22:25:00,
2013-03-04 17:26:00,25.8,20.8,29.82,South,176,4.0,12.0,81,0.03,,,0.02,VWS V14.01,2013-03-04 22:26:00,
2013-03-04 17:29:00,25.7,20.7,29.83,SW,221,4.0,10.0,81,0.03,,,0.02,VWS V14.01,2013-03-04 22:29:00,
2013-03-04 17:30:00,25.5,20.2,29.87,WSW,246,2.0,6.0,80,0.00,,,0.02,VWS V14.01,2013-03-04 22:30:00,
2013-03-04 17:31:00,25.7,20.7,29.83,WSW,243,5.0,10.0,81,0.03,,,0.02,VWS V14.01,2013-03-04 22:31:00,
2013-03-04 17:34:00,25.7,20.7,29.83,WSW,250,2.0,10.0,81,0.03,,,0.02,VWS V14.01,2013-03-04 22:34:00,
2013-03-04 17:35:00,25.7,20.7,29.83,WSW,240,6.0,10.0,81,0.03,,,0.02,VWS V14.01,2013-03-04 22:35:00,
2013-03-04 17:36:00,25.7,20.7,29.83,SSW,192,2.0,10.0,81,0.03,,,0.02,VWS V14.01,2013-03-04 22:36:00,
2013-03-04 17:39:00,25.7,20.7,29.83,WSW,244,4.0,7.0,81,0.00,,,0.02,VWS V14.01,2013-03-04 22:39:00,
2013-03-04 17:40:00,25.7,20.4,29.83,SE,145,3.0,7.0,80,0.00,,,0.02,VWS V14.01,2013-03-04 22:40:00,
2013-03-04 17:41:00,25.7,20.4,29.83,SW,229,10.0,11.0,80,0.00,,,0.02,VWS V14.01,2013-03-04 22:41:00,
2013-03-04 17:44:00,25.7,20.4,29.84,West,262,7.0,10.0,80,0.00,,,0.02,VWS V14.01,2013-03-04 22:44:00,
2013-03-04 17:45:00,25.7,20.4,29.84,West,265,8.0,10.0,80,0.00,,,0.02,VWS V14.01,2013-03-04 22:45:00,
2013-03-04 17:46:00,25.7,20.1,29.84,SW,230,5.0,10.0,79,0.00,,,0.02,VWS V14.01,2013-03-04 22:46:00,
2013-03-04 17:49:00,25.8,20.2,29.84,West,279,4.0,7.0,79,0.00,,,0.02,VWS V14.01,2013-03-04 22:49:00,
2013-03-04 17:50:00,25.8,20.2,29.84,West,279,2.0,7.0,79,0.00,,,0.02,VWS V14.01,2013-03-04 22:50:00,
2013-03-04 17:51:00,25.8,20.2,29.84,NW,326,2.0,7.0,79,0.00,,,0.02,VWS V14.01,2013-03-04 22:51:00,
2013-03-04 17:55:00,25.8,19.9,29.84,SW,229,1.0,9.0,78,0.00,,,0.02,VWS V14.01,2013-03-04 22:55:00,
2013-03-04 17:56:00,25.9,20.0,29.84,SW,226,1.0,9.0,78,0.00,,,0.02,VWS V14.01,2013-03-04 22:56:00,
2013-03-04 18:00:00,25.9,20.0,29.85,WSW,249,0.0,6.0,78,0.00,,,0.02,VWS V14.01,2013-03-04 23:00:00,
2013-03-04 18:01:00,25.9,20.0,29.85,WSW,250,1.0,6.0,78,0.00,,,0.02,VWS V14.01,2013-03-04 23:01:00,
2013-03-04 18:05:00,26.0,20.1,29.85,ESE,120,2.0,10.0,78,0.00,,,0.02,VWS V14.01,2013-03-04 23:05:00,
2013-03-04 18:06:00,26.0,20.1,29.85,WSW,252,2.0,10.0,78,0.00,,,0.02,VWS V14.01,2013-03-04 23:06:00,
2013-03-04 18:10:00,25.9,20.3,29.85,SW,226,2.0,10.0,79,0.00,,,0.02,VWS V14.01,2013-03-04 23:10:00,
2013-03-04 18:11:00,25.9,20.3,29.85,WSW,244,1.0,10.0,79,0.00,,,0.02,VWS V14.01,2013-03-04 23:11:00,
2013-03-04 18:15:00,25.7,20.1,29.85,NW,304,7.0,12.0,79,0.00,,,0.02,VWS V14.01,2013-03-04 23:15:00,
2013-03-04 18:16:00,25.7,20.1,29.85,NW,304,3.0,12.0,79,0.00,,,0.02,VWS V14.01,2013-03-04 23:16:00,
2013-03-04 18:20:00,25.6,20.0,29.86,SW,230,2.0,7.0,79,0.00,,,0.02,VWS V14.01,2013-03-04 23:20:00,
2013-03-04 18:21:00,25.6,20.0,29.86,SW,230,1.0,7.0,79,0.00,,,0.02,VWS V14.01,2013-03-04 23:21:00,
2013-03-04 18:22:00,25.6,20.0,29.86,South,179,0.0,2.0,79,0.00,,,0.02,VWS V14.01,2013-03-04 23:22:00,
2013-03-04 18:25:00,25.6,20.3,29.86,WSW,248,1.0,5.0,80,0.00,,,0.02,VWS V14.01,2013-03-04 23:25:00,
2013-03-04 18:26:00,25.6,20.3,29.86,South,190,2.0,5.0,80,0.00,,,0.02,VWS V14.01,2013-03-04 23:26:00,
2013-03-04 18:27:00,25.6,20.3,29.86,WSW,241,1.0,6.0,80,0.00,,,0.02,VWS V14.01,2013-03-04 23:27:00,
2013-03-04 18:30:00,25.5,20.2,29.87,SSW,194,0.0,6.0,80,0.00,,,0.02,VWS V14.01,2013-03-04 23:30:00,
2013-03-04 18:31:00,25.5,20.2,29.87,WNW,293,3.0,3.0,80,0.00,,,0.02,VWS V14.01,2013-03-04 23:31:00,
2013-03-04 18:32:00,25.5,20.2,29.87,WNW,294,0.0,3.0,80,0.00,,,0.02,VWS V14.01,2013-03-04 23:32:00,
2013-03-04 18:35:00,25.5,19.9,29.87,SW,236,2.0,4.0,79,0.00,,,0.02,VWS V14.01,2013-03-04 23:35:00,
2013-03-04 18:36:00,25.5,19.9,29.87,SW,236,2.0,2.0,79,0.00,,,0.02,VWS V14.01,2013-03-04 23:36:00,
2013-03-04 18:37:00,25.5,19.9,29.87,SW,219,2.0,6.0,79,0.00,,,0.02,VWS V14.01,2013-03-04 23:37:00,
2013-03-04 18:41:00,25.5,19.9,29.87,WNW,286,3.0,6.0,79,0.00,,,0.02,VWS V14.01,2013-03-04 23:41:00,
2013-03-04 18:42:00,25.6,20.0,29.87,WSW,240,4.0,6.0,79,0.00,,,0.02,VWS V14.01,2013-03-04 23:42:00,
2013-03-04 18:46:00,25.6,19.7,29.87,SSW,192,0.0,7.0,78,0.00,,,0.02,VWS V14.01,2013-03-04 23:46:00,
2013-03-04 18:47:00,25.6,19.7,29.87,SW,215,2.0,3.0,78,0.00,,,0.02,VWS V14.01,2013-03-04 23:47:00,
2013-03-04 18:51:00,25.6,19.7,29.87,SW,232,2.0,4.0,78,0.00,,,0.02,VWS V14.01,2013-03-04 23:51:00,
2013-03-04 18:52:00,25.6,19.7,29.87,SW,232,3.0,3.0,78,0.00,,,0.02,VWS V14.01,2013-03-04 23:52:00,
2013-03-04 18:56:00,25.7,19.8,29.87,SW,234,1.0,6.0,78,0.00,,,0.02,VWS V14.01,2013-03-04 23:56:00,
2013-03-04 18:57:00,25.7,19.8,29.87,SW,232,2.0,4.0,78,0.00,,,0.02,VWS V14.01,2013-03-04 23:57:00,
2013-03-04 18:58:00,25.7,19.8,29.87,SW,232,2.0,4.0,78,0.00,,,0.02,VWS V14.01,2013-03-04 23:58:00,
2013-03-04 19:01:00,25.7,19.8,29.88,SW,232,3.0,4.0,78,0.00,,,0.02,VWS V14.01,2013-03-05 00:01:00,
2013-03-04 19:02:00,25.7,19.8,29.87,West,259,1.0,5.0,78,0.00,,,0.02,VWS V14.01,2013-03-05 00:02:00,
2013-03-04 19:03:00,25.7,19.8,29.87,West,259,1.0,5.0,78,0.00,,,0.02,VWS V14.01,2013-03-05 00:03:00,
2013-03-04 19:06:00,25.7,19.8,29.88,West,259,0.0,5.0,78,0.00,,,0.02,VWS V14.01,2013-03-05 00:06:00,
2013-03-04 19:07:00,25.7,19.8,29.88,SW,229,0.0,4.0,78,0.00,,,0.02,VWS V14.01,2013-03-05 00:07:00,
2013-03-04 19:08:00,25.7,19.8,29.88,SW,229,0.0,4.0,78,0.00,,,0.02,VWS V14.01,2013-03-05 00:08:00,
2013-03-04 19:11:00,25.8,19.9,29.88,WSW,247,3.0,3.0,78,0.00,,,0.02,VWS V14.01,2013-03-05 00:11:00,
2013-03-04 19:13:00,25.8,19.9,29.88,WSW,253,0.0,5.0,78,0.00,,,0.02,VWS V14.01,2013-03-05 00:13:00,
2013-03-04 19:14:00,25.8,19.9,29.88,WSW,253,0.0,5.0,78,0.00,,,0.02,VWS V14.01,2013-03-05 00:14:00,
2013-03-04 19:15:00,25.9,19.7,29.89,WSW,245,0.0,9.0,77,0.00,,,0.02,VWS V14.01,2013-03-05 00:15:00,
2013-03-04 19:16:00,25.8,19.9,29.88,SW,223,2.0,3.0,78,0.00,,,0.02,VWS V14.01,2013-03-05 00:16:00,
2013-03-04 19:18:00,25.8,19.9,29.88,SW,229,0.0,3.0,78,0.00,,,0.02,VWS V14.01,2013-03-05 00:18:00,
2013-03-04 19:19:00,25.8,19.9,29.88,SW,229,0.0,3.0,78,0.00,,,0.02,VWS V14.01,2013-03-05 00:19:00,
2013-03-04 19:20:00,25.8,19.9,29.89,West,280,5.0,6.0,78,0.00,,,0.02,VWS V14.01,2013-03-05 00:20:00,
2013-03-04 19:21:00,25.8,19.9,29.88,SW,223,1.0,2.0,78,0.00,,,0.02,VWS V14.01,2013-03-05 00:21:00,
2013-03-04 19:22:00,25.8,19.9,29.88,SW,233,4.0,9.0,78,0.00,,,0.02,VWS V14.01,2013-03-05 00:22:00,
2013-03-04 19:24:00,25.8,19.6,29.88,SW,223,7.0,9.0,77,0.00,,,0.02,VWS V14.01,2013-03-05 00:24:00,
2013-03-04 19:25:00,25.7,19.8,29.89,SW,236,2.0,7.0,78,0.00,,,0.02,VWS V14.01,2013-03-05 00:25:00,
2013-03-04 19:30:00,25.7,20.1,29.89,WSW,258,0.0,7.0,79,0.00,,,0.02,VWS V14.01,2013-03-05 00:30:00,
2013-03-04 19:35:00,25.7,20.1,29.89,WSW,252,1.0,7.0,79,0.00,,,0.02,VWS V14.01,2013-03-05 00:35:00,
2013-03-04 19:40:00,25.7,20.1,29.89,WSW,248,2.0,3.0,79,0.00,,,0.02,VWS V14.01,2013-03-05 00:40:00,
2013-03-04 19:45:00,25.7,20.1,29.89,WSW,240,0.0,5.0,79,0.00,,,0.02,VWS V14.01,2013-03-05 00:45:00,
2013-03-04 19:50:00,25.7,20.1,29.90,WSW,253,4.0,5.0,79,0.00,,,0.02,VWS V14.01,2013-03-05 00:50:00,
2013-03-04 19:55:00,25.7,20.1,29.90,WSW,243,3.0,6.0,79,0.00,,,0.02,VWS V14.01,2013-03-05 00:55:00,
2013-03-04 20:00:00,25.7,20.1,29.90,WSW,242,0.0,3.0,79,0.00,,,0.02,VWS V14.01,2013-03-05 01:00:00,
2013-03-04 20:05:00,25.7,20.1,29.90,WSW,243,0.0,3.0,79,0.00,,,0.02,VWS V14.01,2013-03-05 01:05:00,
2013-03-04 20:10:00,25.7,20.1,29.90,WSW,246,0.0,5.0,79,0.00,,,0.02,VWS V14.01,2013-03-05 01:10:00,
2013-03-04 20:14:00,25.8,19.6,29.88,SW,221,1.0,9.0,77,0.00,,,0.02,VWS V14.01,2013-03-05 01:14:00,
2013-03-04 20:15:00,25.7,20.1,29.90,WSW,246,0.0,2.0,79,0.00,,,0.02,VWS V14.01,2013-03-05 01:15:00,
2013-03-04 20:19:00,25.8,19.9,29.89,SW,225,2.0,6.0,78,0.00,,,0.02,VWS V14.01,2013-03-05 01:19:00,
2013-03-04 20:20:00,25.7,20.1,29.90,SW,233,3.0,5.0,79,0.00,,,0.02,VWS V14.01,2013-03-05 01:20:00,
2013-03-04 20:24:00,25.8,19.9,29.89,West,271,3.0,6.0,78,0.00,,,0.02,VWS V14.01,2013-03-05 01:24:00,
2013-03-04 20:25:00,25.7,20.1,29.90,NW,325,2.0,6.0,79,0.00,,,0.02,VWS V14.01,2013-03-05 01:25:00,
2013-03-04 20:29:00,25.7,20.1,29.90,SW,233,2.0,7.0,79,0.00,,,0.02,VWS V14.01,2013-03-05 01:29:00,
2013-03-04 20:30:00,25.7,20.1,29.91,NW,321,0.0,3.0,79,0.00,,,0.02,VWS V14.01,2013-03-05 01:30:00,
2013-03-04 20:34:00,25.7,20.1,29.89,West,259,0.0,5.0,79,0.00,,,0.02,VWS V14.01,2013-03-05 01:34:00,
2013-03-04 20:35:00,25.7,20.1,29.91,NW,318,1.0,3.0,79,0.00,,,0.02,VWS V14.01,2013-03-05 01:35:00,
2013-03-04 20:39:00,25.7,20.1,29.89,WSW,250,0.0,3.0,79,0.00,,,0.02,VWS V14.01,2013-03-05 01:39:00,
2013-03-04 20:40:00,25.7,20.1,29.89,WSW,251,0.0,3.0,79,0.00,,,0.02,VWS V14.01,2013-03-05 01:40:00,
2013-03-04 20:44:00,25.7,20.1,29.89,WSW,240,0.0,5.0,79,0.00,,,0.02,VWS V14.01,2013-03-05 01:44:00,
2013-03-04 20:45:00,25.7,20.1,29.89,WSW,240,1.0,5.0,79,0.00,,,0.02,VWS V14.01,2013-03-05 01:45:00,
2013-03-04 20:49:00,25.7,20.1,29.90,SSW,213,0.0,5.0,79,0.00,,,0.02,VWS V14.01,2013-03-05 01:49:00,
2013-03-04 20:50:00,25.7,20.1,29.90,SSW,213,0.0,5.0,79,0.00,,,0.02,VWS V14.01,2013-03-05 01:50:00,
2013-03-04 20:54:00,25.7,20.1,29.90,WSW,244,0.0,5.0,79,0.00,,,0.02,VWS V14.01,2013-03-05 01:54:00,
2013-03-04 20:55:00,25.7,20.1,29.90,WSW,244,0.0,5.0,79,0.00,,,0.02,VWS V14.01,2013-03-05 01:55:00,
2013-03-04 20:59:00,25.7,20.1,29.90,WSW,243,0.0,3.0,79,0.00,,,0.02,VWS V14.01,2013-03-05 01:59:00,
2013-03-04 21:00:00,25.7,20.1,29.90,WSW,243,0.0,3.0,79,0.00,,,0.02,VWS V14.01,2013-03-05 02:00:00,
2013-03-04 21:04:00,25.7,20.1,29.90,WSW,243,0.0,3.0,79,0.00,,,0.02,VWS V14.01,2013-03-05 02:04:00,
2013-03-04 21:05:00,25.7,20.1,29.90,WSW,242,0.0,3.0,79,0.00,,,0.02,VWS V14.01,2013-03-05 02:05:00,
2013-03-04 21:09:00,25.7,20.1,29.90,West,267,2.0,5.0,79,0.00,,,0.02,VWS V14.01,2013-03-05 02:09:00,
2013-03-04 21:10:00,25.7,20.1,29.90,West,271,1.0,5.0,79,0.00,,,0.02,VWS V14.01,2013-03-05 02:10:00,
2013-03-04 21:14:00,25.7,19.8,29.90,WSW,246,0.0,2.0,78,0.00,,,0.02,VWS V14.01,2013-03-05 02:14:00,
2013-03-04 21:15:00,25.7,19.8,29.90,WSW,246,0.0,2.0,78,0.00,,,0.02,VWS V14.01,2013-03-05 02:15:00,
2013-03-04 21:19:00,25.7,20.1,29.90,WNW,287,4.0,5.0,79,0.00,,,0.02,VWS V14.01,2013-03-05 02:19:00,
2013-03-04 21:20:00,25.7,20.1,29.90,WNW,287,0.0,5.0,79,0.00,,,0.02,VWS V14.01,2013-03-05 02:20:00,
2013-03-04 21:24:00,25.7,20.1,29.90,NW,323,2.0,6.0,79,0.00,,,0.02,VWS V14.01,2013-03-05 02:24:00,
2013-03-04 21:25:00,25.7,20.1,29.90,NW,323,2.0,6.0,79,0.00,,,0.02,VWS V14.01,2013-03-05 02:25:00,
2013-03-04 21:29:00,25.7,20.1,29.90,NW,321,0.0,3.0,79,0.00,,,0.02,VWS V14.01,2013-03-05 02:29:00,
2013-03-04 21:30:00,25.7,20.1,29.91,NW,321,0.0,3.0,79,0.00,,,0.02,VWS V14.01,2013-03-05 02:30:00,
2013-03-04 21:35:00,25.7,20.1,29.91,NW,318,0.0,3.0,79,0.00,,,0.02,VWS V14.01,2013-03-05 02:35:00,
2013-03-04 21:40:00,25.6,20.0,29.91,NW,317,0.0,2.0,79,0.00,,,0.02,VWS V14.01,2013-03-05 02:40:00,
2013-03-04 21:41:00,25.6,20.0,29.91,NW,317,0.0,2.0,79,0.00,,,0.02,VWS V14.01,2013-03-05 02:41:00,
2013-03-04 21:45:00,25.6,20.0,29.91,South,188,0.0,3.0,79,0.00,,,0.02,VWS V14.01,2013-03-05 02:45:00,
2013-03-04 21:46:00,25.6,20.0,29.91,South,188,0.0,3.0,79,0.00,,,0.02,VWS V14.01,2013-03-05 02:46:00,
2013-03-04 21:50:00,25.6,20.3,29.91,South,188,0.0,1.0,80,0.00,,,0.02,VWS V14.01,2013-03-05 02:50:00,
2013-03-04 21:51:00,25.6,20.3,29.91,South,188,0.0,1.0,80,0.00,,,0.02,VWS V14.01,2013-03-05 02:51:00,
2013-03-04 21:55:00,25.6,20.3,29.91,South,188,0.0,2.0,80,0.00,,,0.02,VWS V14.01,2013-03-05 02:55:00,
2013-03-04 21:56:00,25.6,20.3,29.91,South,188,0.0,2.0,80,0.00,,,0.02,VWS V14.01,2013-03-05 02:56:00,
2013-03-04 22:00:00,25.6,20.3,29.91,South,188,0.0,1.0,80,0.00,,,0.02,VWS V14.01,2013-03-05 03:00:00,
2013-03-04 22:01:00,25.6,20.3,29.91,South,189,0.0,1.0,80,0.00,,,0.02,VWS V14.01,2013-03-05 03:01:00,
2013-03-04 22:05:00,25.6,20.3,29.91,South,189,0.0,0.0,80,0.00,,,0.02,VWS V14.01,2013-03-05 03:05:00,
2013-03-04 22:06:00,25.6,20.3,29.91,SW,233,4.0,4.0,80,0.00,,,0.02,VWS V14.01,2013-03-05 03:06:00,
2013-03-04 22:10:00,25.6,20.3,29.91,SW,234,3.0,4.0,80,0.00,,,0.02,VWS V14.01,2013-03-05 03:10:00,
2013-03-04 22:11:00,25.6,20.3,29.91,SW,234,2.0,2.0,80,0.00,,,0.02,VWS V14.01,2013-03-05 03:11:00,
2013-03-04 22:15:00,25.6,20.0,29.91,SW,234,0.0,2.0,79,0.00,,,0.02,VWS V14.01,2013-03-05 03:15:00,
2013-03-04 22:16:00,25.6,20.0,29.91,SW,233,0.0,0.0,79,0.00,,,0.02,VWS V14.01,2013-03-05 03:16:00,
2013-03-04 22:20:00,25.6,20.0,29.91,SW,234,0.0,3.0,79,0.00,,,0.02,VWS V14.01,2013-03-05 03:20:00,
2013-03-04 22:21:00,25.6,20.0,29.91,SW,234,0.0,0.0,79,0.00,,,0.02,VWS V14.01,2013-03-05 03:21:00,
2013-03-04 22:25:00,25.7,20.1,29.91,SW,234,0.0,0.0,79,0.00,,,0.02,VWS V14.01,2013-03-05 03:25:00,
2013-03-04 22:26:00,25.7,20.1,29.91,SW,234,0.0,0.0,79,0.00,,,0.02,VWS V14.01,2013-03-05 03:26:00,
2013-03-04 22:30:00,25.7,20.4,29.91,SW,233,0.0,0.0,80,0.00,,,0.02,VWS V14.01,2013-03-05 03:30:00,
2013-03-04 22:31:00,25.7,20.4,29.91,SW,234,0.0,0.0,80,0.00,,,0.02,VWS V14.01,2013-03-05 03:31:00,
2013-03-04 22:35:00,25.6,20.6,29.92,SW,234,0.0,0.0,81,0.00,,,0.02,VWS V14.01,2013-03-05 03:35:00,
2013-03-04 22:36:00,25.7,20.4,29.91,SW,233,0.0,0.0,80,0.00,,,0.02,VWS V14.01,2013-03-05 03:36:00,
2013-03-04 22:37:00,25.7,20.4,29.91,SW,234,0.0,0.0,80,0.00,,,0.02,VWS V14.01,2013-03-05 03:37:00,
2013-03-04 22:40:00,25.6,20.3,29.92,SW,234,0.0,0.0,80,0.00,,,0.02,VWS V14.01,2013-03-05 03:40:00,
2013-03-04 22:41:00,25.6,20.3,29.91,SW,233,0.0,0.0,80,0.00,,,0.02,VWS V14.01,2013-03-05 03:41:00,
2013-03-04 22:42:00,25.6,20.3,29.91,SW,233,0.0,0.0,80,0.00,,,0.02,VWS V14.01,2013-03-05 03:42:00,
2013-03-04 22:45:00,25.6,20.3,29.92,SW,233,0.0,0.0,80,0.00,,,0.02,VWS V14.01,2013-03-05 03:45:00,
2013-03-04 22:46:00,25.6,20.3,29.91,SW,234,0.0,0.0,80,0.00,,,0.02,VWS V14.01,2013-03-05 03:46:00,
2013-03-04 22:47:00,25.6,20.3,29.91,SW,233,0.0,0.0,80,0.00,,,0.02,VWS V14.01,2013-03-05 03:47:00,
2013-03-04 22:50:00,25.5,20.2,29.92,SW,233,0.0,0.0,80,0.00,,,0.02,VWS V14.01,2013-03-05 03:50:00,
2013-03-04 22:51:00,25.6,20.3,29.91,SW,234,2.0,2.0,80,0.00,,,0.02,VWS V14.01,2013-03-05 03:51:00,
2013-03-04 22:52:00,25.6,20.3,29.92,SW,233,0.0,1.0,80,0.00,,,0.02,VWS V14.01,2013-03-05 03:52:00,
2013-03-04 22:55:00,25.5,20.5,29.92,SW,234,0.0,2.0,81,0.00,,,0.02,VWS V14.01,2013-03-05 03:55:00,
2013-03-04 22:56:00,25.5,20.2,29.92,SW,234,0.0,1.0,80,0.00,,,0.02,VWS V14.01,2013-03-05 03:56:00,
2013-03-04 22:57:00,25.6,20.3,29.92,SW,233,2.0,3.0,80,0.00,,,0.02,VWS V14.01,2013-03-05 03:57:00,
2013-03-04 23:00:00,25.4,20.4,29.93,SW,234,0.0,1.0,81,0.00,,,0.00,VWS V14.01,2013-03-05 04:00:00,
2013-03-04 23:01:00,25.6,20.3,29.92,SW,234,0.0,3.0,80,0.00,,,0.02,VWS V14.01,2013-03-05 04:01:00,
2013-03-04 23:02:00,25.6,20.3,29.92,SW,234,0.0,2.0,80,0.00,,,0.02,VWS V14.01,2013-03-05 04:02:00,
2013-03-04 23:05:00,25.4,20.4,29.93,SW,234,0.0,1.0,81,0.00,,,0.00,VWS V14.01,2013-03-05 04:05:00,
2013-03-04 23:06:00,25.6,20.3,29.92,SW,233,0.0,0.0,80,0.00,,,0.02,VWS V14.01,2013-03-05 04:06:00,
2013-03-04 23:07:00,25.6,20.3,29.92,SW,233,0.0,0.0,80,0.00,,,0.02,VWS V14.01,2013-03-05 04:07:00,
2013-03-04 23:10:00,25.4,20.7,29.93,SW,234,0.0,0.0,82,0.00,,,0.00,VWS V14.01,2013-03-05 04:10:00,
2013-03-04 23:11:00,25.6,20.6,29.92,SW,234,0.0,0.0,81,0.00,,,0.02,VWS V14.01,2013-03-05 04:11:00,
2013-03-04 23:12:00,25.6,20.6,29.92,SW,234,1.0,2.0,81,0.00,,,0.02,VWS V14.01,2013-03-05 04:12:00,
2013-03-04 23:13:00,25.7,20.7,29.92,SW,234,0.0,2.0,81,0.00,,,0.02,VWS V14.01,2013-03-05 04:13:00,
2013-03-04 23:15:00,25.3,20.9,29.93,SW,233,0.0,0.0,83,0.00,,,0.00,VWS V14.01,2013-03-05 04:15:00,
2013-03-04 23:16:00,25.6,20.3,29.92,SW,234,0.0,0.0,80,0.00,,,0.02,VWS V14.01,2013-03-05 04:16:00,
2013-03-04 23:17:00,25.7,20.4,29.92,SW,234,0.0,0.0,80,0.00,,,0.02,VWS V14.01,2013-03-05 04:17:00,
2013-03-04 23:18:00,25.6,20.3,29.92,SW,234,0.0,0.0,80,0.00,,,0.02,VWS V14.01,2013-03-05 04:18:00,
2013-03-04 23:20:00,25.2,21.0,29.93,SW,234,0.0,0.0,84,0.00,,,0.00,VWS V14.01,2013-03-05 04:20:00,
2013-03-04 23:21:00,25.6,20.3,29.92,SW,234,0.0,0.0,80,0.00,,,0.02,VWS V14.01,2013-03-05 04:21:00,
2013-03-04 23:22:00,25.6,20.3,29.92,SW,234,0.0,0.0,80,0.00,,,0.02,VWS V14.01,2013-03-05 04:22:00,
2013-03-04 23:23:00,25.7,20.7,29.92,SW,233,0.0,0.0,81,0.00,,,0.02,VWS V14.01,2013-03-05 04:23:00,
2013-03-04 23:25:00,25.1,21.0,29.93,SW,234,0.0,0.0,84,0.00,,,0.00,VWS V14.01,2013-03-05 04:25:00,
2013-03-04 23:26:00,25.6,20.6,29.92,SW,234,0.0,0.0,81,0.00,,,0.02,VWS V14.01,2013-03-05 04:26:00,
2013-03-04 23:27:00,25.7,20.7,29.92,SW,234,0.0,0.0,81,0.00,,,0.02,VWS V14.01,2013-03-05 04:27:00,
2013-03-04 23:28:00,25.6,20.6,29.92,SW,234,0.0,0.0,81,0.00,,,0.02,VWS V14.01,2013-03-05 04:28:00,
2013-03-04 23:30:00,25.0,20.9,29.94,SW,233,0.0,2.0,84,0.00,,,0.00,VWS V14.01,2013-03-05 04:30:00,
2013-03-04 23:31:00,25.6,20.6,29.92,SW,234,0.0,0.0,81,0.00,,,0.02,VWS V14.01,2013-03-05 04:31:00,
2013-03-04 23:32:00,25.6,20.6,29.92,SW,234,0.0,0.0,81,0.00,,,0.02,VWS V14.01,2013-03-05 04:32:00,
2013-03-04 23:33:00,25.6,20.6,29.92,SW,234,0.0,0.0,81,0.00,,,0.02,VWS V14.01,2013-03-05 04:33:00,
2013-03-04 23:35:00,24.9,21.0,29.93,SW,233,0.0,0.0,85,0.00,,,0.00,VWS V14.01,2013-03-05 04:35:00,
2013-03-04 23:36:00,25.6,20.6,29.92,SW,233,0.0,0.0,81,0.00,,,0.02,VWS V14.01,2013-03-05 04:36:00,
2013-03-04 23:37:00,25.6,20.6,29.92,SW,234,0.0,0.0,81,0.00,,,0.02,VWS V14.01,2013-03-05 04:37:00,
2013-03-04 23:38:00,25.6,20.6,29.92,SW,233,0.0,0.0,81,0.00,,,0.02,VWS V14.01,2013-03-05 04:38:00,
2013-03-04 23:40:00,24.8,20.9,29.94,SW,234,0.0,0.0,85,0.00,,,0.00,VWS V14.01,2013-03-05 04:40:00,
2013-03-04 23:42:00,25.6,20.3,29.92,SW,234,0.0,0.0,80,0.00,,,0.02,VWS V14.01,2013-03-05 04:42:00,
2013-03-04 23:43:00,25.6,20.3,29.92,SW,233,0.0,0.0,80,0.00,,,0.02,VWS V14.01,2013-03-05 04:43:00,
2013-03-04 23:45:00,24.8,20.9,29.94,SW,234,0.0,0.0,85,0.00,,,0.00,VWS V14.01,2013-03-05 04:45:00,
2013-03-04 23:47:00,25.5,20.2,29.92,SW,233,0.0,0.0,80,0.00,,,0.02,VWS V14.01,2013-03-05 04:47:00,
2013-03-04 23:48:00,25.6,20.6,29.92,SW,234,0.0,0.0,81,0.00,,,0.02,VWS V14.01,2013-03-05 04:48:00,
2013-03-04 23:50:00,24.7,20.8,29.94,SW,233,0.0,0.0,85,0.00,,,0.00,VWS V14.01,2013-03-05 04:50:00,
2013-03-04 23:52:00,25.5,20.2,29.92,SW,233,0.0,0.0,80,0.00,,,0.02,VWS V14.01,2013-03-05 04:52:00,
2013-03-04 23:53:00,25.5,20.2,29.92,SW,234,0.0,0.0,80,0.00,,,0.02,VWS V14.01,2013-03-05 04:53:00,
2013-03-04 23:55:00,24.7,21.1,29.94,SW,234,0.0,2.0,86,0.00,,,0.00,VWS V14.01,2013-03-05 04:55:00,
2013-03-04 23:57:00,25.5,20.5,29.93,SW,234,1.0,1.0,81,0.00,,,0.02,VWS V14.01,2013-03-05 04:57:00,
2013-03-04 23:58:00,25.5,20.5,29.93,SW,234,0.0,1.0,81,0.00,,,0.02,VWS V14.01,2013-03-05 04:58:00,